Regional Weather Roundup
Issued by NWS

Home | Current Version | Previous Version | Graphics & Text | Print | Product List | Glossary On
Versions: 1 2 3 4 5 6 7 8 9 10 11 12 13 14 15 16 17 18 19 20 21 22 23 24 25 26 27 28 29 30 31 32 33 34 35 36 37 38 39 40 41 42 43 44 45 46 47 48 49 50
000
ASUS43 KMKX 210400
RWRWI

WISCONSIN REGIONAL WEATHER ROUNDUP
NATIONAL WEATHER SERVICE MILWAUKEE/SULLIVAN WI
1100 PM CDT MON OCT 20 2014

NOTE: "FAIR" INDICATES FEW OR NO CLOUDS BELOW 12,000 FEET WITH NO
SIGNIFICANT WEATHER AND/OR OBSTRUCTIONS TO VISIBILITY.

WIZ001-002-006>008-014>016-023>028-210500-
NORTHWEST WISCONSIN

CITY           SKY/WX    TMP DP  RH WIND       PRES   REMARKS
SUPERIOR ARPT  CLOUDY    47  38  69 NE3       30.11R
ASHLAND        CLOUDY    45  40  82 E9        30.13R
HAYWARD        CLOUDY    46  40  79 CALM      30.10R
SIREN          CLOUDY    48  38  69 NE3       30.10R
CUMBERLAND     CLOUDY    46  37  71 NE5       30.09R
RICE LAKE      CLOUDY    46  40  80 N6        30.09S
CHETEK         CLOUDY    46  41  81 CALM      30.08R
LADYSMITH      CLOUDY    48  40  74 N6        30.09S
EAU CLAIRE     NOT AVBL
MENOMONIE      CLEAR     44  38  77 CALM      30.08R
NEW RICHMOND   CLEAR     38  37  95 NE3       30.09R
OSCEOLA        CLEAR     37  37  99 CALM      30.12R
$$

WIZ003>005-009-010-017-018-210500-
NORTH CENTRAL WISCONSIN

CITY           SKY/WX    TMP DP  RH WIND       PRES   REMARKS
MANITOWISH WTR CLOUDY    40  40  99 NE3       30.08R
ARBOR VITAE    DRIZZLE   42  40  93 NE8       30.08R
WOODRUFF       DRIZZLE   42  40  93 NE8       30.08R
RHINELANDER    CLOUDY    40  38  93 N3        30.08R
EAGLE RIVER    CLOUDY    40  39  97 CALM      30.07R
LAND O LAKES   CLOUDY    40  37  87 N7        30.08R
PHILLIPS       CLOUDY    44  40  85 N5        30.08R
TOMAHAWK       CLOUDY    43  39  86 CALM      30.07R
MEDFORD        CLOUDY    45  40  82 N6        30.06S
MERRILL        CLOUDY    45  42  88 NE6       30.06R
$$

WIZ029-030-035-036-043>047-210500-
CENTRAL WISCONSIN

CITY           SKY/WX    TMP DP  RH WIND       PRES   REMARKS
WAUSAU         LGT RAIN  46  40  79 N3        30.05R
MOSINEE        CLOUDY    45  41  87 NE3       30.06R
MARSHFIELD     CLOUDY    49  40  71 N6        30.06R
STEVENS POINT  CLOUDY    45  38  79 N3        30.05S
WAUPACA        CLOUDY    50  41  70 NW6       30.04S
WAUTOMA        NOT AVBL
WISC RAPIDS    CLOUDY    49  40  71 N5        30.07R
CAMP DOUGLAS   NOT AVBL
$$

WIZ011>013-019>022-031-037>040-048>050-210500-
NORTHEAST WISCONSIN

CITY           SKY/WX    TMP DP  RH WIND       PRES   REMARKS
ANTIGO         CLOUDY    42  38  87 N8        30.05S
SHAWANO        CLOUDY    48  40  71 N6        30.05R
OCONTO         CLOUDY    45  41  85 NW5       30.03R
STURGEON BAY   CLOUDY    46  37  71 N15G21    30.02R
GREEN BAY      CLOUDY    47  40  76 N9        30.04R
MANITOWOC      NOT AVBL
APPLETON       CLOUDY    46  39  76 N8        30.04R
CLINTONVILLE   CLOUDY    46  39  76 N3        30.04R
OSHKOSH        CLOUDY    49  42  77 N8        30.03R
$$

WIZ032>034-041-042-053>061-210500-
SOUTHWEST WISCONSIN

CITY           SKY/WX    TMP DP  RH WIND       PRES   REMARKS
LA CROSSE      CLEAR     45  40  82 CALM      30.06R
SPARTA         CLOUDY    47  38  71 CALM      30.07R
VIROQUA        PTCLDY    45  38  77 CALM      30.05R
BOSCOBEL       CLEAR     41  39  93 CALM      30.06R FOG
PRAIRIE DU CHI CLEAR     47  40  75 CALM      30.05R
PLATTEVILLE    CLEAR     45  40  81 CALM      30.05R
$$

WIZ056-057-062-063-064-067-068-210500-
SOUTH CENTRAL WISCONSIN

CITY           SKY/WX    TMP DP  RH WIND       PRES   REMARKS
REEDSBURG      CLOUDY    51  40  66 N6        30.04S
BARABOO/DELLS  CLOUDY    50  38  63 CALM      30.04S
LONE ROCK      NOT AVBL
MINERAL POINT  CLEAR     46  37  71 N3        30.04R
MADISON        CLOUDY    51  38  60 N7        30.03S
MIDDLETON      CLOUDY    52  40  64 N3        30.04S
WATERTOWN      CLOUDY    49  43  80 NW6       30.02R
MONROE         CLOUDY    48  43  81 N5        30.02S
JANESVILLE     CLOUDY    52  41  66 N5        30.01S
$$

WIZ051-052-058>065-066-070>072-210500-
SOUTHEAST WISCONSIN

CITY           SKY/WX    TMP DP  RH WIND       PRES   REMARKS
MILWAUKEE      MOCLDY    51  42  71 N7        30.01S
WAUKESHA       CLOUDY    46  41  81 N5        30.02S
MILWAUKEE/TIMM CLOUDY    50  41  71 N6        30.01S
RACINE         CLOUDY    50  43  77 N5        30.02S
BURLINGTON     CLOUDY    49  41  73 N5        30.01S
KENOSHA        CLOUDY    51  43  74 NW5       30.01R
FOND DU LAC    CLOUDY    48  43  82 N6        30.03S
SHEBOYGAN      CLOUDY    48  42  80 N8        30.01S
WEST BEND      DRIZZLE   46  43  87 N8        30.02R
JUNEAU         CLOUDY    49  41  75 N9        30.04R
$$

LSZ147-162-210500-
LAKE SUPERIOR

STATION/POSITION TIME  TEMP    WIND        PRES    WAVE
                       AIR SEA DIR/SP/G            HT/PER
                 (UTC) (F)     (DEG/KT/KT) (MB)    (FT/S)
W MID LAKE BUOY  0250   44 46   20/ 17/ 19 1020.1R   4/ 5
DEVILS ISLAND    0300   46      80/ 17/ 18 1020.4R
PORT WING        0340   49      60/ 11/ 13 1020.0R
SAXON HARBOR     0340   47      50/ 18/ 20 1019.6R
$$

LMZ867-665-643>646-210500-
LAKE MICHIGAN

STATION/POSITION TIME  TEMP    WIND        PRES    WAVE
                       AIR SEA DIR/SP/G            HT/PER
                 (UTC) (F)     (DEG/KT/KT) (MB)    (FT/S)
CHAMBERS ISLAND  0340   47     320/ 18/ 21 1016.6R
N MID LAKE BUOY  0250   47 52  340/ 23/ 27 1014.7R   5/ 5
NORTHPORT PIER   0304   47     340/ 20/ 25 1015.9R
KEWAUNEE LAKESHO 0324   47     360/  5/  7 1015.4R
SHEBOYGAN LAKESH 0300   50 50  330/  9/ 13 1016.5R
PORT WASHINGTON  0300   50     340/  6/ 11 1016.9R
ATWATER BUOY     0300   52     320/  8/ 10 1017.0R
MILWAUKEE LAKESH 0300   52     330/  5/  7   N/A
S MID LAKE BUOY  0250   53 55  330/ 17/ 19 1015.1R   3/ 5
KENOSHA   LAKESH 0300   52     350/ 10/ 13 1015.9R
$$

TC  - TEMPERATURE IN CELSIUS
VSB - VISIBILITY IN STATUTE MILES
WCI - WIND CHILL INDEX
HX  - HEAT INDEX




USA.gov is the U.S. government's official web portal to all federal, state and local government web resources and services.